Location: San Martino di Castrozza
(46.2667°N, 11.8000°E)
Time: 06:33:36
(UTC+00:00)

Meteor 1-18 Rocket - Pass Details

Date: 23 April 2021
Orbit: 836 x 909 km, 81.2° (Epoch: 07 May)

Event Time Altitude Azimuth Distance (km) Brightness Sun altitude
Exits shadow 00:59:25 73° 233° (SW) 929 4.1 -26.4°
Maximum altitude 00:59:53 78° 281° (W) 908 4.2 -26.3°
Drops below altitude 10° 01:05:39 10° 9° (N) 2,529 7.5 -25.8°
Sets 01:08:05 0° 11° (N) 3,460 8.5 -25.6°
